Sauk Centre, MN

1:37 AM CST on December 16, 2019 (GMT -0600)
Sauk Centre

Weather History for KD39 - October, 2019

Change the Weather History Date:

Thursday, October 10, 2019

  Actual Average (KGHW) Record (KGHW)
Temperature  
Mean Temperature 44 °F -  
Max Temperature 54 °F 58 °F 80 °F (1955)
Min Temperature 35 °F 36 °F 19 °F (1970)
Degree Days  
Heating Degree Days 20    
Moisture  
Dew Point 47 °F    
Average Humidity 95    
Maximum Humidity 99    
Minimum Humidity 74    
Precipitation  
Precipitation 0.20 in - - ()
Sea Level Pressure  
Sea Level Pressure 29.81 in    
Wind  
Wind Speed 9 mph ()    
Max Wind Speed 16 mph    
Max Gust Speed 24 mph    
Visibility 5.6 miles    
Events Rain , Thunderstorm    
Averages and records for this station are not official NWS values.
T = Trace of Precipitation, MM = Missing Value Source: Averaged Metar Reports

Daily Weather History Graph

Daily Weather History Graph

Search for Another Location

Airport or City:

Astronomy

Oct. 10, 2019 Rise Set
Actual Time 7:29 AM CDT 6:43 PM CDT
Civil Twilight 6:59 AM CDT 7:13 PM CDT
Nautical Twilight 6:25 AM CDT 7:47 PM CDT
Astronomical Twilight 5:50 AM CDT 8:21 PM CDT
Moon 5:57 PM CDT (10/10) 3:59 AM CDT (10/10)
Length of Visible Light 12h 13m
Length of Day
11h 13m
Waxing Gibbous, 91% of the Moon is Illuminated
Oct 10
Waxing Gibbous
Oct 13
Full
Oct 21
Last Quarter
Oct 27
New
Nov 4
First Quarter

Hourly Weather History & Observations

Time (CDT) Temp. Windchill Dew Point Humidity Pressure Visibility Wind Dir Wind Speed Gust Speed Precip Events Conditions
12:15 AM 53.6 °F - 47.1 °F 79% 29.92 in 10.0 mi SSE 6.9 mph - N/A   Clear
12:16 AM 53.6 °F - 47.1 °F 79% 29.92 in 10.0 mi SSE 6.9 mph - N/A   Clear
12:35 AM 51.4 °F - 46.4 °F 83% 29.92 in 10.0 mi SSE 5.8 mph - N/A   Clear
12:39 AM 51.4 °F - 46.4 °F 83% 29.92 in 10.0 mi SE 5.8 mph - N/A   Clear
12:58 AM 51.8 °F - 46.6 °F 82% 29.92 in 10.0 mi SE 6.9 mph - N/A   Mostly Cloudy
1:15 AM 52.2 °F - 45.9 °F 79% 29.92 in 10.0 mi SE 9.2 mph - N/A   Scattered Clouds
1:35 AM 51.6 °F - 45.7 °F 80% 29.92 in 10.0 mi SE 6.9 mph - N/A   Clear
1:36 AM 51.4 °F - 45.5 °F 80% 29.92 in 10.0 mi SE 6.9 mph - N/A   Clear
1:55 AM 51.8 °F - 45.7 °F 80% 29.93 in 10.0 mi SE 8.1 mph - N/A   Mostly Cloudy
2:18 AM 53.6 °F - 45.9 °F 75% 29.92 in 10.0 mi SE 6.9 mph - N/A   Overcast
2:37 AM 54.5 °F - 46.2 °F 74% 29.91 in 10.0 mi SE 10.4 mph - N/A   Overcast
2:56 AM 54.3 °F - 47.8 °F 79% 29.91 in 10.0 mi SSE 13.8 mph 19.6 mph N/A   Overcast
3:16 AM 53.2 °F - 49.1 °F 86% 29.91 in 10.0 mi SSE 11.5 mph - N/A   Overcast
3:35 AM 52.0 °F - 49.6 °F 92% 29.90 in 5.0 mi SE 10.4 mph - N/A   Overcast
3:39 AM 51.6 °F - 50.0 °F 94% 29.90 in 4.0 mi SE 9.2 mph - N/A   Overcast
3:58 AM 51.1 °F - 50.2 °F 97% 29.89 in 3.0 mi ESE 9.2 mph - N/A Rain Rain
4:15 AM 50.9 °F - 50.2 °F 97% 29.88 in 3.0 mi SE 10.4 mph - N/A Rain Light Rain
4:35 AM 50.9 °F - 50.0 °F 97% 29.88 in 3.0 mi SE 10.4 mph - N/A Rain Light Rain
4:36 AM 50.9 °F - 50.0 °F 97% 29.88 in 3.0 mi SE 10.4 mph - N/A Rain Light Rain
4:55 AM 50.9 °F - 50.2 °F 97% 29.88 in 3.0 mi SE 11.5 mph 16.1 mph N/A   Light Drizzle
4:56 AM 50.9 °F - 50.2 °F 97% 29.88 in 3.0 mi SE 10.4 mph 16.1 mph N/A   Light Drizzle
5:18 AM 50.9 °F - 50.0 °F 97% 29.88 in 10.0 mi SE 11.5 mph - N/A   Overcast
5:36 AM 50.9 °F - 49.8 °F 96% 29.87 in 7.0 mi SE 15.0 mph - N/A   Overcast
6:15 AM 50.9 °F - 50.0 °F 97% 29.87 in 7.0 mi SE 10.4 mph 18.4 mph N/A   Overcast
6:16 AM 50.9 °F - 50.0 °F 97% 29.87 in 7.0 mi SE 12.7 mph 18.4 mph N/A   Overcast
6:35 AM 50.7 °F - 49.8 °F 97% 29.87 in 7.0 mi SE 12.7 mph 18.4 mph N/A   Overcast
6:39 AM 50.7 °F - 50.0 °F 97% 29.87 in 7.0 mi SE 11.5 mph 18.4 mph N/A   Overcast
6:58 AM 50.5 °F - 50.0 °F 98% 29.86 in 5.0 mi SE 9.2 mph 16.1 mph N/A   Overcast
7:15 AM 50.7 °F - 50.0 °F 97% 29.86 in 10.0 mi SE 8.1 mph - N/A   Overcast
7:35 AM 50.9 °F - 50.0 °F 97% 29.86 in 7.0 mi SE 6.9 mph - N/A   Overcast
7:36 AM 50.9 °F - 50.0 °F 97% 29.86 in 7.0 mi SE 8.1 mph - N/A   Overcast
7:55 AM 50.9 °F - 50.2 °F 97% 29.86 in 4.0 mi SE 5.8 mph - N/A   Overcast
7:56 AM 50.9 °F - 50.2 °F 97% 29.87 in 3.0 mi SE 6.9 mph - N/A   Overcast
8:18 AM 50.9 °F - 50.5 °F 99% 29.86 in 2.5 mi SE 4.6 mph - N/A   Overcast
8:36 AM 51.1 °F - 50.9 °F 99% 29.86 in 3.0 mi SE 6.9 mph - N/A   Overcast
8:56 AM 51.4 °F - 50.9 °F 98% 29.85 in 4.0 mi ESE 8.1 mph - N/A   Overcast
9:15 AM 51.4 °F - 50.9 °F 98% 29.85 in 3.0 mi SE 9.2 mph - N/A   Overcast
9:35 AM 51.8 °F - 51.3 °F 98% 29.85 in 5.0 mi SE 6.9 mph - N/A   Overcast
9:39 AM 52.0 °F - 51.4 °F 98% 29.85 in 5.0 mi SE 6.9 mph - N/A   Overcast
9:58 AM 52.2 °F - 51.6 °F 98% 29.86 in 4.0 mi SE 9.2 mph - N/A   Overcast
10:15 AM 52.3 °F - 51.8 °F 98% 29.86 in 2.5 mi SE 8.1 mph - N/A   Overcast
10:35 AM 52.7 °F - 52.0 °F 97% 29.85 in 1.8 mi SE 9.2 mph - N/A   Overcast
10:55 AM 52.7 °F - 52.0 °F 97% 29.85 in 2.5 mi SE 8.1 mph - N/A   Overcast
10:56 AM 52.7 °F - 52.2 °F 98% 29.85 in 2.5 mi SE 9.2 mph - N/A   Overcast
11:19 AM 52.7 °F - 52.2 °F 98% 29.85 in 1.8 mi SE 9.2 mph - N/A   Overcast
11:36 AM 52.9 °F - 52.3 °F 98% 29.84 in 1.5 mi SE 8.1 mph - N/A Rain Light Rain
11:56 AM 53.2 °F - 52.9 °F 99% 29.84 in 1.8 mi SE 8.1 mph - N/A   Light Drizzle
12:15 PM 53.6 °F - 52.9 °F 97% 29.82 in 1.8 mi SE 6.9 mph - N/A   Overcast
12:35 PM 53.6 °F - 52.9 °F 97% 29.81 in 2.0 mi ESE 8.1 mph - N/A   Overcast
12:39 PM 53.6 °F - 52.9 °F 97% 29.81 in 2.0 mi ESE 9.2 mph - N/A   Overcast
12:58 PM 53.6 °F - 53.1 °F 98% 29.80 in 2.0 mi SE 6.9 mph - N/A   Overcast
1:15 PM 53.8 °F - 53.2 °F 98% 29.79 in 2.0 mi SE 8.1 mph - N/A   Overcast
1:35 PM 53.6 °F - 52.9 °F 97% 29.79 in 2.5 mi SE 6.9 mph - N/A   Overcast
1:36 PM 53.6 °F - 52.9 °F 97% 29.79 in 2.5 mi SE 8.1 mph - N/A   Overcast
2:18 PM 54.5 °F - 53.8 °F 97% 29.75 in 10.0 mi ESE 6.9 mph - N/A   Overcast
2:36 PM 54.7 °F - 53.6 °F 96% 29.74 in 10.0 mi ESE 8.1 mph - N/A   Overcast
2:56 PM 54.5 °F - 53.6 °F 97% 29.73 in 10.0 mi ESE 6.9 mph - N/A   Overcast
3:15 PM 54.7 °F - 53.2 °F 95% 29.72 in 10.0 mi ESE 9.2 mph - N/A   Overcast
3:35 PM 54.5 °F - 53.6 °F 97% 29.72 in 3.0 mi SE 9.2 mph - N/A   Drizzle
3:39 PM 54.5 °F - 53.6 °F 97% 29.72 in 3.0 mi SE 6.9 mph - 0.01 in Rain Rain
3:58 PM 54.5 °F - 53.8 °F 97% 29.73 in 2.5 mi SE 6.9 mph - 0.05 in Rain Rain
4:15 PM 54.5 °F - 54.0 °F 98% 29.72 in 2.5 mi SE 5.8 mph - 0.02 in Rain Heavy Rain
4:35 PM 48.2 °F - 46.9 °F 95% 29.73 in 3.0 mi West 12.7 mph 17.3 mph 0.04 in   Heavy Drizzle
4:36 PM 48.0 °F - 46.9 °F 96% 29.73 in 3.0 mi West 13.8 mph 17.3 mph 0.04 in   Heavy Drizzle
4:55 PM 45.7 °F 39.8 °F 44.8 °F 97% 29.74 in 3.0 mi West 12.7 mph - 0.04 in   Heavy Drizzle
5:19 PM 43.3 °F 37.7 °F 42.6 °F 97% 29.72 in 3.0 mi WNW 10.4 mph - N/A   Drizzle
5:37 PM 42.4 °F 35.0 °F 41.9 °F 98% 29.74 in 2.0 mi WNW 15.0 mph - N/A Rain Light Rain
5:56 PM 41.5 °F 33.5 °F 41.0 °F 98% 29.72 in 2.5 mi NW 16.1 mph - N/A Rain Rain
6:16 PM 41.2 °F 34.5 °F 40.5 °F 97% 29.72 in 4.0 mi WNW 11.5 mph 20.7 mph N/A   Overcast
6:35 PM 41.4 °F 34.7 °F 40.6 °F 97% 29.72 in 4.0 mi NW 11.5 mph - N/A Rain Light Rain
6:39 PM 41.4 °F 34.7 °F 40.6 °F 97% 29.71 in 2.5 mi NW 11.5 mph - N/A Rain Heavy Rain
6:56 PM 41.9 °F 36.9 °F 41.2 °F 97% 29.72 in 4.0 mi WNW 8.1 mph - 0.02 in Rain Heavy Rain
7:16 PM 42.1 °F 37.1 °F 41.9 °F 99% 29.73 in 3.0 mi West 8.1 mph - 0.01 in   Heavy Drizzle
7:35 PM 41.7 °F 36.1 °F 41.2 °F 98% 29.74 in 2.5 mi West 9.2 mph - 0.01 in Rain Light Rain
7:36 PM 41.5 °F 35.9 °F 41.2 °F 99% 29.74 in 2.5 mi West 9.2 mph - 0.01 in Rain Light Rain
7:55 PM 41.9 °F 37.5 °F 41.4 °F 98% 29.73 in 2.5 mi West 6.9 mph - 0.02 in Rain Rain
8:17 PM 41.0 °F 35.8 °F 40.3 °F 97% 29.72 in 4.0 mi WNW 8.1 mph - 0.03 in Rain Rain
8:36 PM 40.3 °F 35.5 °F 39.9 °F 99% 29.72 in 7.0 mi West 6.9 mph - 0.05 in Rain Light Rain
8:55 PM 40.1 °F 34.1 °F 39.4 °F 97% 29.72 in 10.0 mi West 9.2 mph - 0.07 in Rain Light Rain
8:56 PM 40.1 °F 34.1 °F 39.4 °F 97% 29.72 in 10.0 mi West 9.2 mph - 0.07 in Rain Light Rain
9:15 PM 39.2 °F 31.2 °F 38.5 °F 97% 29.72 in 10.0 mi West 13.8 mph - N/A Rain Light Rain
9:20 PM 39.2 °F 33.0 °F 38.3 °F 97% 29.72 in 10.0 mi West 9.2 mph - N/A Rain Light Rain
9:37 PM 38.8 °F 31.6 °F 38.1 °F 97% 29.72 in 7.0 mi West 11.5 mph - N/A Rain Light Rain
9:55 PM 38.3 °F 30.9 °F 37.6 °F 97% 29.72 in 5.0 mi West 11.5 mph 17.3 mph N/A Rain Light Rain
10:15 PM 38.1 °F 30.2 °F 37.4 °F 97% 29.72 in 7.0 mi West 12.7 mph - N/A Thunderstorm Overcast
10:16 PM 37.9 °F 29.6 °F 37.4 °F 98% 29.72 in 10.0 mi West 13.8 mph - N/A Thunderstorm Overcast
10:35 PM 37.0 °F 28.1 °F 36.3 °F 97% 29.72 in 10.0 mi West 15.0 mph - N/A   Overcast
10:36 PM 37.0 °F 28.1 °F 36.3 °F 97% 29.73 in 7.0 mi West 15.0 mph - N/A   Overcast
10:58 PM 36.5 °F 27.4 °F 35.6 °F 97% 29.72 in 5.0 mi West 15.0 mph 24.2 mph N/A Rain Light Rain
11:17 PM 36.0 °F 28.0 °F 35.2 °F 97% 29.71 in 7.0 mi West 11.5 mph 19.6 mph N/A Rain Rain
11:36 PM 35.8 °F 26.9 °F 34.9 °F 97% 29.71 in 7.0 mi West 13.8 mph 17.3 mph N/A Rain , Thunderstorm Light Thunderstorms and Rain
11:55 PM 35.6 °F 26.2 °F 34.7 °F 97% 29.72 in 10.0 mi West 15.0 mph - N/A   Overcast
11:56 PM 35.6 °F 26.2 °F 34.5 °F 96% 29.72 in 10.0 mi West 15.0 mph - N/A   Overcast